Location: B?dargowo
(53.3916°N, 14.4413°E)
Time: 00:50:15
(UTC+00:00)

Cosmos-2242 - Pass Details

Date: 05 February 2023
Orbit: 587 x 612 km, 82.5° (Epoch: 20 March)

Event Time Altitude Azimuth Distance (km) Brightness Sun altitude
Rises 19:08:20 0° 343° (NNW) 2,834 6.8 -29.2°
Reaches altitude 10° 19:10:39 10° 335° (NNW) 1,927 6.0 -29.6°
Enters shadow 19:13:51 35° 292° (WNW) 966 4.5 -30.0°
